Location: Unspecified
(35.7250°N, 0.0000°E)
Time: 19:36:21
(UTC+00:00)

Courier 1B Rocket - Pass Details

Date: 18 August 2020
Orbit: 920 x 1202 km, 28.2° (Epoch: 01 October)

Event Time Altitude Azimuth Distance (km) Brightness Sun altitude
Exits shadow 02:26:51 22° 129° (SE) 1,915 6.5 -30.7°
Drops below altitude 10° 02:29:11 10° 117° (ESE) 2,654 7.4 -30.4°
Sets 02:32:00 0° 111° (ESE) 3,629 8.3 -30.0°
